Time,TemperatureF,DewpointF,PressureIn,WindDirection,WindDirectionDegrees,WindSpeedMPH,WindSpeedGustMPH,Humidity,HourlyPrecipIn,Conditions,Clouds,dailyrainin,SolarRadiationWatts/m^2,SoftwareType,DateUTC
2013-07-23 00:01:00,75.9,72.9,29.96,SSE,167,0.0,8.0,90,0.00,,,0.00,0.0,meteohub,2013-07-23 04:01:00,
2013-07-23 00:06:00,75.9,72.9,29.97,South,170,1.0,6.0,90,0.00,,,0.00,0.0,meteohub,2013-07-23 04:06:00,
2013-07-23 00:11:00,75.9,72.9,29.97,SSW,208,0.0,6.0,90,0.00,,,0.00,0.0,meteohub,2013-07-23 04:11:00,
2013-07-23 00:16:00,75.7,72.7,29.97,ESE,120,0.0,6.0,90,0.00,,,0.00,0.0,meteohub,2013-07-23 04:16:00,
2013-07-23 00:22:00,75.7,72.7,29.97,East,81,0.0,8.0,90,0.00,,,0.00,0.0,meteohub,2013-07-23 04:22:00,
2013-07-23 00:27:00,75.6,72.5,29.97,ESE,105,0.0,8.0,90,0.00,,,0.00,0.0,meteohub,2013-07-23 04:27:00,
2013-07-23 00:32:00,75.6,72.5,29.96,ESE,105,0.0,6.0,90,0.00,,,0.00,0.0,meteohub,2013-07-23 04:32:00,
2013-07-23 00:37:00,75.4,72.3,29.96,SW,228,0.0,6.0,90,0.00,,,0.00,0.0,meteohub,2013-07-23 04:37:00,
2013-07-23 00:42:00,75.4,72.5,29.96,NW,315,0.0,4.0,91,0.00,,,0.00,0.0,meteohub,2013-07-23 04:42:00,
2013-07-23 00:47:00,75.2,72.3,29.96,NW,315,0.0,4.0,91,0.00,,,0.00,0.0,meteohub,2013-07-23 04:47:00,
2013-07-23 00:52:00,75.2,72.3,29.96,South,180,0.0,4.0,91,0.00,,,0.00,0.0,meteohub,2013-07-23 04:52:00,
2013-07-23 00:57:00,75.0,72.1,29.96,SE,125,0.0,7.0,91,0.00,,,0.00,0.0,meteohub,2013-07-23 04:57:00,
2013-07-23 01:02:00,75.0,72.1,29.96,SW,236,0.0,7.0,91,0.00,,,0.00,0.0,meteohub,2013-07-23 05:02:00,
2013-07-23 01:07:00,75.0,72.1,29.96,SSE,156,0.0,7.0,91,0.00,,,0.00,0.0,meteohub,2013-07-23 05:07:00,
2013-07-23 01:12:00,74.8,72.3,29.96,SSW,204,0.0,4.0,92,0.00,,,0.00,0.0,meteohub,2013-07-23 05:12:00,
2013-07-23 01:17:00,74.8,72.3,29.96,SW,215,4.0,4.0,92,0.00,,,0.00,0.0,meteohub,2013-07-23 05:17:00,
2013-07-23 01:22:00,74.8,72.0,29.96,ENE,71,0.0,5.0,91,0.00,,,0.00,0.0,meteohub,2013-07-23 05:22:00,
2013-07-23 01:27:00,74.8,72.3,29.96,ENE,69,0.0,5.0,92,0.00,,,0.00,0.0,meteohub,2013-07-23 05:27:00,
2013-07-23 01:32:00,74.7,72.1,29.95,ESE,106,0.0,4.0,92,0.00,,,0.00,0.0,meteohub,2013-07-23 05:32:00,
2013-07-23 01:37:00,74.7,72.1,29.95,SSE,157,0.0,2.0,92,0.00,,,0.00,0.0,meteohub,2013-07-23 05:37:00,
2013-07-23 01:42:00,74.7,72.1,29.95,SSE,158,0.0,4.0,92,0.00,,,0.00,0.0,meteohub,2013-07-23 05:42:00,
2013-07-23 01:47:00,74.7,72.1,29.95,WSW,257,0.0,4.0,92,0.00,,,0.00,0.0,meteohub,2013-07-23 05:47:00,
2013-07-23 01:52:00,74.7,72.1,29.95,South,191,0.0,5.0,92,0.00,,,0.00,0.0,meteohub,2013-07-23 05:52:00,
2013-07-23 01:57:00,74.7,72.1,29.94,SSW,204,2.0,5.0,92,0.00,,,0.00,0.0,meteohub,2013-07-23 05:57:00,
2013-07-23 02:02:00,74.5,72.0,29.94,West,267,2.0,5.0,92,0.00,,,0.00,0.0,meteohub,2013-07-23 06:02:00,
2013-07-23 02:07:00,74.5,72.0,29.94,SW,227,0.0,5.0,92,0.00,,,0.00,0.0,meteohub,2013-07-23 06:07:00,
2013-07-23 02:12:00,74.5,72.0,29.94,SSW,209,0.0,5.0,92,0.00,,,0.00,0.0,meteohub,2013-07-23 06:12:00,
2013-07-23 02:17:00,74.5,72.0,29.94,SSE,165,0.0,5.0,92,0.00,,,0.00,0.0,meteohub,2013-07-23 06:17:00,
2013-07-23 02:22:00,74.5,72.0,29.94,SW,232,0.0,5.0,92,0.00,,,0.00,0.0,meteohub,2013-07-23 06:22:00,
2013-07-23 02:27:00,74.5,72.0,29.94,SW,232,0.0,5.0,92,0.00,,,0.00,0.0,meteohub,2013-07-23 06:27:00,
2013-07-23 02:32:00,74.3,71.8,29.94,SW,219,0.0,5.0,92,0.00,,,0.00,0.0,meteohub,2013-07-23 06:32:00,
2013-07-23 02:37:00,74.3,71.8,29.94,SW,218,0.0,3.0,92,0.00,,,0.00,0.0,meteohub,2013-07-23 06:37:00,
2013-07-23 02:42:00,74.1,71.6,29.94,SE,137,0.0,1.0,92,0.00,,,0.00,0.0,meteohub,2013-07-23 06:42:00,
2013-07-23 02:47:00,74.1,71.6,29.94,SSW,203,0.0,1.0,92,0.00,,,0.00,0.0,meteohub,2013-07-23 06:47:00,
2013-07-23 02:52:00,74.1,71.6,29.94,WNW,294,1.0,3.0,92,0.00,,,0.00,0.0,meteohub,2013-07-23 06:52:00,
2013-07-23 02:57:00,74.1,71.6,29.94,WNW,286,0.0,5.0,92,0.00,,,0.00,0.0,meteohub,2013-07-23 06:57:00,
2013-07-23 03:02:00,74.1,71.6,29.94,WNW,286,0.0,5.0,92,0.00,,,0.00,0.0,meteohub,2013-07-23 07:02:00,
2013-07-23 03:07:00,74.1,71.6,29.94,WNW,286,0.0,5.0,92,0.00,,,0.00,0.0,meteohub,2013-07-23 07:07:00,
2013-07-23 03:12:00,74.1,71.6,29.94,WNW,286,0.0,5.0,92,0.00,,,0.00,0.0,meteohub,2013-07-23 07:12:00,
2013-07-23 03:17:00,73.9,71.4,29.94,WSW,240,2.0,2.0,92,0.00,,,0.00,0.0,meteohub,2013-07-23 07:17:00,
2013-07-23 03:22:00,73.9,71.4,29.94,SSE,153,0.0,2.0,92,0.00,,,0.00,0.0,meteohub,2013-07-23 07:22:00,
2013-07-23 03:27:00,73.9,71.4,29.94,SSW,212,0.0,4.0,92,0.00,,,0.00,0.0,meteohub,2013-07-23 07:27:00,
2013-07-23 03:32:00,73.9,71.4,29.94,NW,325,0.0,4.0,92,0.00,,,0.00,0.0,meteohub,2013-07-23 07:32:00,
2013-07-23 03:37:00,73.9,71.4,29.94,NNE,21,0.0,3.0,92,0.00,,,0.00,0.0,meteohub,2013-07-23 07:37:00,
2013-07-23 03:42:00,73.9,71.4,29.94,WNW,295,3.0,5.0,92,0.00,,,0.00,0.0,meteohub,2013-07-23 07:42:00,
2013-07-23 03:47:00,73.9,71.4,29.94,WNW,291,1.0,5.0,92,0.00,,,0.00,0.0,meteohub,2013-07-23 07:47:00,
2013-07-23 03:52:00,73.9,71.4,29.94,WNW,291,0.0,4.0,92,0.00,,,0.00,0.0,meteohub,2013-07-23 07:52:00,
2013-07-23 03:57:00,73.9,71.4,29.94,SSE,153,0.0,3.0,92,0.00,,,0.00,0.0,meteohub,2013-07-23 07:57:00,
2013-07-23 04:02:00,73.9,71.4,29.94,SSW,212,0.0,3.0,92,0.00,,,0.00,0.0,meteohub,2013-07-23 08:02:00,
2013-07-23 04:07:00,73.9,71.1,29.94,NW,318,0.0,3.0,91,0.00,,,0.00,0.0,meteohub,2013-07-23 08:07:00,
2013-07-23 04:12:00,73.9,71.4,29.94,NW,318,0.0,4.0,92,0.00,,,0.00,0.0,meteohub,2013-07-23 08:12:00,
2013-07-23 04:17:00,73.9,71.1,29.94,NW,318,0.0,4.0,91,0.00,,,0.00,0.0,meteohub,2013-07-23 08:17:00,
2013-07-23 04:22:00,73.9,71.4,29.94,South,186,2.0,4.0,92,0.00,,,0.00,0.0,meteohub,2013-07-23 08:22:00,
2013-07-23 04:27:00,74.1,71.2,29.94,South,186,0.0,5.0,91,0.00,,,0.00,0.0,meteohub,2013-07-23 08:27:00,
2013-07-23 04:32:00,74.1,71.6,29.94,WSW,250,0.0,5.0,92,0.00,,,0.00,0.0,meteohub,2013-07-23 08:32:00,
2013-07-23 04:37:00,74.1,71.6,29.94,WSW,248,0.0,5.0,92,0.00,,,0.00,0.0,meteohub,2013-07-23 08:37:00,
2013-07-23 04:42:00,74.1,71.6,29.94,WSW,238,0.0,2.0,92,0.00,,,0.00,0.0,meteohub,2013-07-23 08:42:00,
2013-07-23 04:47:00,74.1,71.6,29.94,SW,228,0.0,2.0,92,0.00,,,0.00,0.0,meteohub,2013-07-23 08:47:00,
2013-07-23 04:52:00,74.1,71.6,29.94,South,178,0.0,3.0,92,0.00,,,0.00,0.0,meteohub,2013-07-23 08:52:00,
2013-07-23 04:57:00,74.1,71.6,29.94,SSE,147,0.0,3.0,92,0.00,,,0.00,0.0,meteohub,2013-07-23 08:57:00,
2013-07-23 05:02:00,74.1,71.6,29.94,SE,146,0.0,3.0,92,0.00,,,0.00,0.0,meteohub,2013-07-23 09:02:00,
2013-07-23 05:07:00,74.1,71.6,29.94,SSE,150,0.0,3.0,92,0.00,,,0.00,0.0,meteohub,2013-07-23 09:07:00,
2013-07-23 05:12:00,73.9,71.4,29.94,SE,143,0.0,3.0,92,0.00,,,0.00,0.0,meteohub,2013-07-23 09:12:00,
2013-07-23 05:17:00,73.9,71.4,29.94,SSE,161,0.0,3.0,92,0.00,,,0.00,0.0,meteohub,2013-07-23 09:17:00,
2013-07-23 05:22:00,73.9,71.4,29.94,SSE,161,1.0,3.0,92,0.00,,,0.00,0.0,meteohub,2013-07-23 09:22:00,
2013-07-23 05:27:00,73.9,71.4,29.94,WSW,252,3.0,3.0,92,0.00,,,0.00,0.0,meteohub,2013-07-23 09:27:00,
2013-07-23 05:32:00,73.9,71.4,29.94,West,263,0.0,3.0,92,0.00,,,0.00,0.0,meteohub,2013-07-23 09:32:00,
2013-07-23 05:37:00,74.1,71.6,29.94,South,180,0.0,3.0,92,0.00,,,0.00,0.0,meteohub,2013-07-23 09:37:00,
2013-07-23 05:42:00,74.1,71.6,29.94,SE,140,0.0,3.0,92,0.00,,,0.00,0.0,meteohub,2013-07-23 09:42:00,
2013-07-23 05:47:00,73.9,71.4,29.94,SSE,164,0.0,4.0,92,0.00,,,0.00,0.0,meteohub,2013-07-23 09:47:00,
2013-07-23 05:52:00,73.9,71.4,29.94,SSE,157,0.0,5.0,92,0.00,,,0.00,0.0,meteohub,2013-07-23 09:52:00,
2013-07-23 05:57:00,73.9,71.4,29.94,SW,229,0.0,5.0,92,0.00,,,0.00,0.0,meteohub,2013-07-23 09:57:00,
2013-07-23 06:02:00,73.9,71.8,29.94,West,268,1.0,5.0,93,0.00,,,0.00,0.0,meteohub,2013-07-23 10:02:00,
2013-07-23 06:07:00,73.9,71.8,29.94,West,279,0.0,5.0,93,0.00,,,0.00,0.0,meteohub,2013-07-23 10:07:00,
2013-07-23 06:12:00,73.9,71.4,29.94,West,269,0.0,5.0,92,0.00,,,0.00,0.0,meteohub,2013-07-23 10:12:00,
2013-07-23 06:17:00,73.9,71.8,29.94,West,273,0.0,5.0,93,0.00,,,0.00,0.0,meteohub,2013-07-23 10:17:00,
2013-07-23 06:22:00,73.9,71.8,29.94,West,272,0.0,3.0,93,0.00,,,0.00,0.0,meteohub,2013-07-23 10:22:00,
2013-07-23 06:27:00,73.9,71.8,29.94,West,275,0.0,3.0,93,0.00,,,0.00,0.0,meteohub,2013-07-23 10:27:00,
2013-07-23 06:32:00,73.9,71.8,29.95,West,276,0.0,3.0,93,0.00,,,0.00,0.0,meteohub,2013-07-23 10:32:00,
2013-07-23 06:37:00,73.9,71.8,29.95,SW,225,0.0,2.0,93,0.00,,,0.00,0.0,meteohub,2013-07-23 10:37:00,
2013-07-23 06:42:00,73.9,71.8,29.95,ESE,108,0.0,3.0,93,0.00,,,0.00,0.0,meteohub,2013-07-23 10:42:00,
2013-07-23 06:47:00,73.9,71.8,29.95,WSW,244,0.0,4.0,93,0.00,,,0.00,5.0,meteohub,2013-07-23 10:47:00,
2013-07-23 06:52:00,73.9,71.8,29.95,SSE,150,1.0,4.0,93,0.00,,,0.00,5.0,meteohub,2013-07-23 10:52:00,
2013-07-23 06:57:00,73.9,71.8,29.95,SSE,150,0.0,4.0,93,0.00,,,0.00,9.0,meteohub,2013-07-23 10:57:00,
2013-07-23 07:02:00,73.9,71.8,29.95,WNW,287,0.0,3.0,93,0.00,,,0.00,11.0,meteohub,2013-07-23 11:02:00,
2013-07-23 07:07:00,73.9,71.8,29.95,WNW,287,0.0,5.0,93,0.00,,,0.00,14.0,meteohub,2013-07-23 11:07:00,
2013-07-23 07:12:00,73.9,71.8,29.95,WNW,287,0.0,5.0,93,0.00,,,0.00,21.0,meteohub,2013-07-23 11:12:00,
2013-07-23 07:17:00,73.9,71.8,29.95,WNW,290,0.0,5.0,93,0.00,,,0.00,30.0,meteohub,2013-07-23 11:17:00,
2013-07-23 07:22:00,73.9,71.8,29.95,WNW,287,0.0,1.0,93,0.00,,,0.00,37.0,meteohub,2013-07-23 11:22:00,
2013-07-23 07:27:00,73.9,71.8,29.95,WNW,287,0.0,3.0,93,0.00,,,0.00,53.0,meteohub,2013-07-23 11:27:00,
2013-07-23 07:32:00,74.1,72.0,29.95,WNW,288,0.0,3.0,93,0.00,,,0.00,65.0,meteohub,2013-07-23 11:32:00,
2013-07-23 07:37:00,74.1,72.0,29.95,West,271,0.0,3.0,93,0.00,,,0.00,65.0,meteohub,2013-07-23 11:37:00,
2013-07-23 07:42:00,74.5,72.3,29.95,SE,138,0.0,2.0,93,0.00,,,0.00,135.0,meteohub,2013-07-23 11:42:00,
2013-07-23 07:47:00,74.7,72.1,29.95,SE,145,3.0,3.0,92,0.00,,,0.00,98.0,meteohub,2013-07-23 11:47:00,
2013-07-23 07:52:00,74.8,72.3,29.95,West,265,0.0,5.0,92,0.00,,,0.00,113.0,meteohub,2013-07-23 11:52:00,
2013-07-23 07:57:00,74.8,72.3,29.95,West,277,0.0,5.0,92,0.00,,,0.00,137.0,meteohub,2013-07-23 11:57:00,
2013-07-23 08:02:00,75.0,72.5,29.95,SW,235,0.0,5.0,92,0.00,,,0.00,141.0,meteohub,2013-07-23 12:02:00,
2013-07-23 08:07:00,75.2,72.7,29.95,West,265,0.0,5.0,92,0.00,,,0.00,113.0,meteohub,2013-07-23 12:07:00,
2013-07-23 08:12:00,75.4,72.5,29.95,SW,214,0.0,6.0,91,0.00,,,0.00,95.0,meteohub,2013-07-23 12:12:00,
2013-07-23 08:17:00,75.4,72.5,29.96,West,276,2.0,6.0,91,0.00,,,0.00,102.0,meteohub,2013-07-23 12:17:00,
2013-07-23 08:22:00,75.4,72.5,29.96,NNE,23,2.0,5.0,91,0.00,,,0.00,102.0,meteohub,2013-07-23 12:22:00,
2013-07-23 08:27:00,75.4,72.5,29.96,South,171,0.0,5.0,91,0.00,,,0.00,88.0,meteohub,2013-07-23 12:27:00,
2013-07-23 08:32:00,75.4,72.5,29.95,South,171,0.0,5.0,91,0.00,,,0.00,116.0,meteohub,2013-07-23 12:32:00,
2013-07-23 08:37:00,75.6,72.7,29.95,SW,221,1.0,5.0,91,0.00,,,0.00,183.0,meteohub,2013-07-23 12:37:00,
2013-07-23 08:42:00,75.7,72.9,29.96,SE,135,2.0,2.0,91,0.00,,,0.00,204.0,meteohub,2013-07-23 12:42:00,
2013-07-23 08:47:00,75.9,72.9,29.95,WSW,252,5.0,5.0,90,0.00,,,0.00,142.0,meteohub,2013-07-23 12:47:00,
2013-07-23 08:52:00,75.9,72.9,29.95,WSW,237,0.0,5.0,90,0.00,,,0.00,160.0,meteohub,2013-07-23 12:52:00,
2013-07-23 08:57:00,76.3,73.0,29.95,West,270,0.0,6.0,90,0.00,,,0.00,130.0,meteohub,2013-07-23 12:57:00,
2013-07-23 09:02:00,76.3,73.0,29.95,West,271,0.0,8.0,90,0.00,,,0.00,144.0,meteohub,2013-07-23 13:02:00,
2013-07-23 09:07:00,76.5,73.2,29.96,West,271,0.0,8.0,90,0.00,,,0.00,132.0,meteohub,2013-07-23 13:07:00,
2013-07-23 09:12:00,76.5,73.2,29.96,SW,226,0.0,8.0,90,0.00,,,0.00,107.0,meteohub,2013-07-23 13:12:00,
2013-07-23 09:17:00,76.5,73.2,29.96,NW,306,0.0,7.0,90,0.00,,,0.00,111.0,meteohub,2013-07-23 13:17:00,
2013-07-23 09:22:00,76.5,73.2,29.96,WSW,257,0.0,7.0,90,0.00,,,0.00,118.0,meteohub,2013-07-23 13:22:00,
2013-07-23 09:27:00,76.5,73.2,29.96,ESE,115,0.0,5.0,90,0.00,,,0.00,121.0,meteohub,2013-07-23 13:27:00,
2013-07-23 09:32:00,76.5,73.2,29.95,WNW,284,0.0,6.0,90,0.00,,,0.00,120.0,meteohub,2013-07-23 13:32:00,
2013-07-23 09:37:00,76.5,73.2,29.96,SSE,160,0.0,7.0,90,0.00,,,0.00,128.0,meteohub,2013-07-23 13:37:00,
2013-07-23 09:42:00,76.5,73.2,29.96,NW,309,0.0,7.0,90,0.00,,,0.00,155.0,meteohub,2013-07-23 13:42:00,
2013-07-23 09:47:00,76.6,73.4,29.96,NW,309,0.0,4.0,90,0.00,,,0.00,163.0,meteohub,2013-07-23 13:47:00,
2013-07-23 09:52:00,76.8,73.6,29.95,West,270,0.0,3.0,90,0.00,,,0.00,206.0,meteohub,2013-07-23 13:52:00,
2013-07-23 09:57:00,77.2,73.9,29.95,SE,142,0.0,2.0,90,0.00,,,0.00,272.0,meteohub,2013-07-23 13:57:00,
2013-07-23 10:02:00,77.4,73.9,29.95,West,261,0.0,5.0,89,0.00,,,0.00,236.0,meteohub,2013-07-23 14:02:00,
2013-07-23 10:07:00,77.5,74.1,29.95,WNW,283,0.0,5.0,89,0.00,,,0.00,227.0,meteohub,2013-07-23 14:07:00,
2013-07-23 10:12:00,77.7,74.3,29.95,SE,130,0.0,6.0,89,0.00,,,0.00,295.0,meteohub,2013-07-23 14:12:00,
2013-07-23 10:17:00,78.1,74.5,29.96,WSW,242,0.0,6.0,89,0.00,,,0.00,383.0,meteohub,2013-07-23 14:17:00,
2013-07-23 10:22:00,78.4,74.3,29.96,SSE,148,0.0,6.0,87,0.00,,,0.00,490.0,meteohub,2013-07-23 14:22:00,
2013-07-23 10:27:00,78.8,74.3,29.96,NW,307,3.0,7.0,86,0.00,,,0.00,497.0,meteohub,2013-07-23 14:27:00,
2013-07-23 10:32:00,79.5,75.4,29.96,SSE,150,0.0,7.0,87,0.00,,,0.00,561.0,meteohub,2013-07-23 14:32:00,
2013-07-23 10:37:00,79.7,74.8,29.96,WNW,283,3.0,7.0,85,0.00,,,0.00,265.0,meteohub,2013-07-23 14:37:00,
2013-07-23 10:42:00,79.3,74.8,29.95,NW,306,0.0,12.0,86,0.00,,,0.00,169.0,meteohub,2013-07-23 14:42:00,
2013-07-23 10:47:00,79.5,74.7,29.95,SW,223,0.0,12.0,85,0.00,,,0.00,267.0,meteohub,2013-07-23 14:47:00,
2013-07-23 10:52:00,80.2,75.4,29.95,SSW,196,0.0,12.0,85,0.00,,,0.00,267.0,meteohub,2013-07-23 14:52:00,
2013-07-23 10:57:00,80.4,74.8,29.95,SSW,207,0.0,9.0,83,0.00,,,0.00,318.0,meteohub,2013-07-23 14:57:00,
2013-07-23 11:02:00,80.8,75.6,29.96,WNW,283,0.0,9.0,84,0.00,,,0.00,325.0,meteohub,2013-07-23 15:02:00,
2013-07-23 11:07:00,81.3,75.7,29.96,SSW,211,0.0,9.0,83,0.00,,,0.00,302.0,meteohub,2013-07-23 15:07:00,
2013-07-23 11:12:00,81.7,75.9,29.96,SSE,163,0.0,7.0,83,0.00,,,0.00,450.0,meteohub,2013-07-23 15:12:00,
2013-07-23 11:17:00,81.7,75.6,29.95,WNW,296,0.0,5.0,82,0.00,,,0.00,359.0,meteohub,2013-07-23 15:17:00,
2013-07-23 11:22:00,81.7,75.9,29.96,SSW,199,2.0,7.0,83,0.00,,,0.00,345.0,meteohub,2013-07-23 15:22:00,
2013-07-23 11:27:00,81.5,75.4,29.96,SSW,211,0.0,7.0,82,0.00,,,0.00,476.0,meteohub,2013-07-23 15:27:00,
2013-07-23 11:32:00,81.7,75.9,29.96,SSE,163,1.0,7.0,83,0.00,,,0.00,527.0,meteohub,2013-07-23 15:32:00,
2013-07-23 11:37:00,81.7,75.9,29.95,West,268,0.0,6.0,83,0.00,,,0.00,413.0,meteohub,2013-07-23 15:37:00,
2013-07-23 11:42:00,81.7,75.6,29.96,WNW,300,7.0,7.0,82,0.00,,,0.00,364.0,meteohub,2013-07-23 15:42:00,
2013-07-23 11:47:00,81.9,75.7,29.95,West,262,3.0,8.0,82,0.00,,,0.00,468.0,meteohub,2013-07-23 15:47:00,
2013-07-23 11:52:00,82.0,76.3,29.95,West,278,0.0,8.0,83,0.00,,,0.00,679.0,meteohub,2013-07-23 15:52:00,
2013-07-23 11:57:00,82.6,76.5,29.95,SSE,150,0.0,12.0,82,0.00,,,0.00,937.0,meteohub,2013-07-23 15:57:00,
2013-07-23 12:02:00,83.3,76.1,29.95,West,261,0.0,12.0,79,0.00,,,0.00,1034.0,meteohub,2013-07-23 16:02:00,
2013-07-23 12:07:00,83.1,75.9,29.95,WNW,294,1.0,13.0,79,0.00,,,0.00,1034.0,meteohub,2013-07-23 16:07:00,
2013-07-23 12:12:00,83.5,77.0,29.94,WNW,283,0.0,13.0,81,0.00,,,0.00,940.0,meteohub,2013-07-23 16:12:00,
2013-07-23 12:17:00,83.7,76.8,29.94,NW,318,2.0,13.0,80,0.00,,,0.00,956.0,meteohub,2013-07-23 16:17:00,
2013-07-23 12:22:00,84.6,77.0,29.94,West,281,4.0,7.0,78,0.00,,,0.00,1042.0,meteohub,2013-07-23 16:22:00,
2013-07-23 12:27:00,84.4,75.9,29.94,West,281,2.0,7.0,76,0.00,,,0.00,977.0,meteohub,2013-07-23 16:27:00,
2013-07-23 12:32:00,84.2,76.6,29.94,West,269,0.0,10.0,78,0.00,,,0.00,422.0,meteohub,2013-07-23 16:32:00,
2013-07-23 12:37:00,84.0,76.1,29.94,SSW,200,0.0,10.0,77,0.00,,,0.00,285.0,meteohub,2013-07-23 16:37:00,
2013-07-23 12:42:00,84.6,77.0,29.94,WNW,290,2.0,9.0,78,0.00,,,0.00,285.0,meteohub,2013-07-23 16:42:00,
2013-07-23 12:47:00,84.7,77.2,29.93,SW,229,0.0,9.0,78,0.00,,,0.00,499.0,meteohub,2013-07-23 16:47:00,
2013-07-23 12:52:00,84.6,77.0,29.93,SSW,194,1.0,11.0,78,0.00,,,0.00,355.0,meteohub,2013-07-23 16:52:00,
2013-07-23 12:57:00,84.7,77.2,29.93,NNW,331,3.0,11.0,78,0.00,,,0.00,367.0,meteohub,2013-07-23 16:57:00,
2013-07-23 13:02:00,85.1,77.0,29.93,West,281,4.0,11.0,77,0.00,,,0.00,341.0,meteohub,2013-07-23 17:02:00,
2013-07-23 13:07:00,85.5,77.4,29.93,South,171,0.0,10.0,77,0.00,,,0.00,366.0,meteohub,2013-07-23 17:07:00,
2013-07-23 13:12:00,85.8,77.4,29.92,West,279,1.0,10.0,76,0.00,,,0.00,325.0,meteohub,2013-07-23 17:12:00,
2013-07-23 13:17:00,85.8,78.1,29.92,South,177,2.0,10.0,78,0.00,,,0.00,1102.0,meteohub,2013-07-23 17:17:00,
2013-07-23 13:22:00,86.5,78.1,29.92,West,277,1.0,7.0,76,0.00,,,0.00,1137.0,meteohub,2013-07-23 17:22:00,
2013-07-23 13:27:00,86.5,78.4,29.91,East,83,0.0,9.0,77,0.00,,,0.00,362.0,meteohub,2013-07-23 17:27:00,
2013-07-23 13:32:00,86.5,77.7,29.91,WNW,287,0.0,9.0,75,0.00,,,0.00,362.0,meteohub,2013-07-23 17:32:00,
2013-07-23 13:37:00,86.5,78.1,29.91,WNW,300,4.0,9.0,76,0.00,,,0.00,1211.0,meteohub,2013-07-23 17:37:00,
2013-07-23 13:42:00,86.4,77.5,29.91,West,279,0.0,8.0,75,0.00,,,0.00,434.0,meteohub,2013-07-23 17:42:00,
2013-07-23 13:47:00,85.6,76.5,29.91,WSW,252,1.0,10.0,74,0.00,,,0.00,388.0,meteohub,2013-07-23 17:47:00,
2013-07-23 13:52:00,85.6,77.2,29.91,WNW,284,2.0,10.0,76,0.00,,,0.00,1092.0,meteohub,2013-07-23 17:52:00,
2013-07-23 13:57:00,85.5,77.0,29.91,WNW,295,0.0,10.0,76,0.00,,,0.00,1067.0,meteohub,2013-07-23 17:57:00,
2013-07-23 14:02:00,85.5,77.0,29.91,WSW,248,2.0,12.0,76,0.00,,,0.00,1113.0,meteohub,2013-07-23 18:02:00,
2013-07-23 14:07:00,85.8,77.4,29.91,WNW,295,6.0,12.0,76,0.00,,,0.00,323.0,meteohub,2013-07-23 18:07:00,
2013-07-23 14:12:00,86.2,77.7,29.90,WNW,289,6.0,12.0,76,0.00,,,0.00,1042.0,meteohub,2013-07-23 18:12:00,
2013-07-23 14:17:00,86.4,77.9,29.90,SW,234,1.0,11.0,76,0.00,,,0.00,399.0,meteohub,2013-07-23 18:17:00,
2013-07-23 14:23:00,86.5,77.7,29.90,WNW,294,8.0,12.0,75,0.00,,,0.00,422.0,meteohub,2013-07-23 18:23:00,
2013-07-23 14:28:00,86.9,78.1,29.90,NW,315,0.0,13.0,75,0.00,,,0.00,1113.0,meteohub,2013-07-23 18:28:00,
2013-07-23 14:34:00,87.4,78.1,29.90,SSW,197,0.0,13.0,74,0.00,,,0.00,315.0,meteohub,2013-07-23 18:34:00,
2013-07-23 14:39:00,87.8,78.4,29.89,SSE,157,1.0,8.0,74,0.00,,,0.00,1000.0,meteohub,2013-07-23 18:39:00,
2013-07-23 14:44:00,88.0,77.9,29.89,SW,227,0.0,8.0,72,0.00,,,0.00,1009.0,meteohub,2013-07-23 18:44:00,
2013-07-23 14:49:00,87.3,77.9,29.88,SSE,157,0.0,10.0,74,0.00,,,0.00,1005.0,meteohub,2013-07-23 18:49:00,
2013-07-23 14:54:00,87.4,77.7,29.88,NW,313,0.0,15.0,73,0.00,,,0.00,1085.0,meteohub,2013-07-23 18:54:00,
2013-07-23 15:00:00,87.4,78.1,29.88,West,277,0.0,15.0,74,0.00,,,0.00,309.0,meteohub,2013-07-23 19:00:00,
2013-07-23 15:05:00,87.3,77.5,29.88,South,170,0.0,15.0,73,0.00,,,0.00,322.0,meteohub,2013-07-23 19:05:00,
2013-07-23 15:10:00,87.1,78.3,29.88,WNW,303,1.0,8.0,75,0.00,,,0.00,229.0,meteohub,2013-07-23 19:10:00,
2013-07-23 15:16:00,87.1,78.6,29.87,WNW,284,0.0,5.0,76,0.00,,,0.00,360.0,meteohub,2013-07-23 19:16:00,
2013-07-23 15:21:00,87.1,78.3,29.87,NW,318,5.0,5.0,75,0.00,,,0.00,1046.0,meteohub,2013-07-23 19:21:00,
2013-07-23 15:26:00,87.6,78.3,29.87,WNW,296,5.0,10.0,74,0.00,,,0.00,939.0,meteohub,2013-07-23 19:26:00,
2013-07-23 15:31:00,87.6,77.9,29.87,SW,222,0.0,10.0,73,0.00,,,0.00,246.0,meteohub,2013-07-23 19:31:00,
2013-07-23 15:37:00,87.8,79.3,29.86,WNW,298,0.0,10.0,76,0.00,,,0.00,896.0,meteohub,2013-07-23 19:37:00,
2013-07-23 15:42:00,88.2,78.8,29.86,SSE,161,1.0,8.0,74,0.00,,,0.00,274.0,meteohub,2013-07-23 19:42:00,
2013-07-23 15:47:00,88.3,78.6,29.86,West,279,2.0,8.0,73,0.00,,,0.00,912.0,meteohub,2013-07-23 19:47:00,
2013-07-23 15:52:00,88.5,78.3,29.86,SSE,160,0.0,6.0,72,0.00,,,0.00,192.0,meteohub,2013-07-23 19:52:00,
2013-07-23 15:57:00,88.5,78.8,29.86,West,275,0.0,6.0,73,0.00,,,0.00,195.0,meteohub,2013-07-23 19:57:00,
2013-07-23 16:02:00,88.3,78.1,29.86,WNW,299,6.0,7.0,72,0.00,,,0.00,784.0,meteohub,2013-07-23 20:02:00,
2013-07-23 16:07:00,88.5,79.5,29.86,West,268,0.0,7.0,75,0.00,,,0.00,141.0,meteohub,2013-07-23 20:07:00,
2013-07-23 16:12:00,88.5,78.3,29.86,WNW,298,1.0,7.0,72,0.00,,,0.00,137.0,meteohub,2013-07-23 20:12:00,
2013-07-23 16:17:00,88.2,78.4,29.86,WNW,284,1.0,7.0,73,0.00,,,0.00,185.0,meteohub,2013-07-23 20:17:00,
2013-07-23 16:22:00,88.2,78.8,29.86,NW,315,2.0,8.0,74,0.00,,,0.00,796.0,meteohub,2013-07-23 20:22:00,
2013-07-23 16:28:00,89.1,79.7,29.85,West,275,0.0,8.0,74,0.00,,,0.00,670.0,meteohub,2013-07-23 20:28:00,
2013-07-23 16:33:00,89.2,79.0,29.85,SW,227,0.0,8.0,72,0.00,,,0.00,185.0,meteohub,2013-07-23 20:33:00,
2013-07-23 16:38:00,89.8,78.6,29.85,WNW,286,0.0,6.0,70,0.00,,,0.00,728.0,meteohub,2013-07-23 20:38:00,
2013-07-23 16:44:00,89.8,78.6,29.85,SW,222,2.0,11.0,70,0.00,,,0.00,708.0,meteohub,2013-07-23 20:44:00,
2013-07-23 16:49:00,89.8,78.3,29.85,West,269,3.0,13.0,69,0.00,,,0.00,726.0,meteohub,2013-07-23 20:49:00,
2013-07-23 16:54:00,90.0,78.4,29.84,WNW,282,0.0,13.0,69,0.00,,,0.00,650.0,meteohub,2013-07-23 20:54:00,
2013-07-23 16:59:00,89.8,78.6,29.84,WNW,282,0.0,10.0,70,0.00,,,0.00,612.0,meteohub,2013-07-23 20:59:00,
2013-07-23 17:05:00,90.0,78.4,29.84,WNW,286,1.0,13.0,69,0.00,,,0.00,304.0,meteohub,2013-07-23 21:05:00,
2013-07-23 17:10:00,90.1,78.6,29.84,West,275,1.0,13.0,69,0.00,,,0.00,158.0,meteohub,2013-07-23 21:10:00,
2013-07-23 17:15:00,90.0,78.4,29.84,WNW,287,6.0,7.0,69,0.00,,,0.00,134.0,meteohub,2013-07-23 21:15:00,
2013-07-23 17:20:00,89.6,78.4,29.84,West,279,0.0,7.0,70,0.00,,,0.00,144.0,meteohub,2013-07-23 21:20:00,
2013-07-23 17:25:00,89.6,79.0,29.84,South,180,2.0,9.0,71,0.00,,,0.00,167.0,meteohub,2013-07-23 21:25:00,
2013-07-23 17:30:00,89.8,78.3,29.83,West,273,6.0,11.0,69,0.00,,,0.00,149.0,meteohub,2013-07-23 21:30:00,
2013-07-23 17:35:00,90.0,77.9,29.83,WNW,288,1.0,11.0,68,0.00,,,0.00,123.0,meteohub,2013-07-23 21:35:00,
2013-07-23 17:41:00,90.0,77.9,29.83,WNW,282,0.0,10.0,68,0.00,,,0.00,151.0,meteohub,2013-07-23 21:41:00,
2013-07-23 17:46:00,89.8,78.3,29.83,WNW,283,0.0,7.0,69,0.00,,,0.00,137.0,meteohub,2013-07-23 21:46:00,
2013-07-23 17:51:00,89.4,77.9,29.83,SSW,204,0.0,5.0,69,0.00,,,0.00,132.0,meteohub,2013-07-23 21:51:00,
2013-07-23 17:56:00,89.2,77.7,29.83,SSW,207,0.0,2.0,69,0.00,,,0.00,162.0,meteohub,2013-07-23 21:56:00,
2013-07-23 18:01:00,89.6,78.4,29.83,South,171,0.0,3.0,70,0.00,,,0.00,118.0,meteohub,2013-07-23 22:01:00,
2013-07-23 18:07:00,89.6,78.1,29.83,WNW,296,0.0,5.0,69,0.00,,,0.00,125.0,meteohub,2013-07-23 22:07:00,
2013-07-23 18:12:00,89.4,78.3,29.82,SSW,213,0.0,5.0,70,0.00,,,0.00,151.0,meteohub,2013-07-23 22:12:00,
2013-07-23 18:17:00,89.6,78.4,29.83,WSW,238,1.0,3.0,70,0.00,,,0.00,141.0,meteohub,2013-07-23 22:17:00,
2013-07-23 18:22:00,89.8,78.6,29.82,WNW,296,4.0,6.0,70,0.00,,,0.00,146.0,meteohub,2013-07-23 22:22:00,
2013-07-23 18:27:00,89.6,78.4,29.82,SSE,167,2.0,6.0,70,0.00,,,0.00,139.0,meteohub,2013-07-23 22:27:00,
2013-07-23 18:32:00,89.4,78.3,29.82,South,188,0.0,6.0,70,0.00,,,0.00,134.0,meteohub,2013-07-23 22:32:00,
2013-07-23 18:37:00,89.2,78.1,29.82,SSW,192,0.0,6.0,70,0.00,,,0.00,132.0,meteohub,2013-07-23 22:37:00,
2013-07-23 18:42:00,89.2,78.6,29.82,NW,311,0.0,5.0,71,0.00,,,0.00,84.0,meteohub,2013-07-23 22:42:00,
2013-07-23 18:47:00,89.1,78.1,29.82,SSE,160,0.0,6.0,70,0.00,,,0.00,62.0,meteohub,2013-07-23 22:47:00,
2013-07-23 18:53:00,88.9,78.3,29.82,SW,232,5.0,9.0,71,0.00,,,0.00,56.0,meteohub,2013-07-23 22:53:00,
2013-07-23 18:58:00,88.5,78.3,29.82,SSE,155,0.0,9.0,72,0.00,,,0.00,56.0,meteohub,2013-07-23 22:58:00,
2013-07-23 19:03:00,88.3,78.1,29.82,SSW,192,0.0,6.0,72,0.00,,,0.00,65.0,meteohub,2013-07-23 23:03:00,
2013-07-23 19:08:00,88.2,77.9,29.83,SSW,202,0.0,6.0,72,0.00,,,0.00,58.0,meteohub,2013-07-23 23:08:00,
2013-07-23 19:14:00,87.4,77.4,29.83,WNW,286,0.0,4.0,72,0.00,,,0.00,49.0,meteohub,2013-07-23 23:14:00,
2013-07-23 19:20:00,86.7,77.4,29.83,SW,233,1.0,7.0,74,0.00,,,0.00,28.0,meteohub,2013-07-23 23:20:00,
2013-07-23 19:25:00,85.8,77.0,29.83,NW,306,1.0,7.0,75,0.00,,,0.00,25.0,meteohub,2013-07-23 23:25:00,
2013-07-23 19:30:00,85.3,76.8,29.83,NNW,348,0.0,7.0,76,0.00,,,0.00,21.0,meteohub,2013-07-23 23:30:00,
2013-07-23 19:35:00,84.6,76.5,29.84,South,175,2.0,7.0,77,0.00,,,0.00,18.0,meteohub,2013-07-23 23:35:00,
2013-07-23 19:40:00,83.8,75.9,29.83,SSW,192,0.0,8.0,77,0.00,,,0.00,23.0,meteohub,2013-07-23 23:40:00,
2013-07-23 19:45:00,83.5,75.9,29.84,SW,236,0.0,9.0,78,0.00,,,0.00,21.0,meteohub,2013-07-23 23:45:00,
2013-07-23 19:51:00,83.1,75.9,29.84,ENE,62,0.0,10.0,79,0.00,,,0.00,19.0,meteohub,2013-07-23 23:51:00,
2013-07-23 19:56:00,82.8,75.2,29.84,West,259,2.0,10.0,78,0.00,,,0.00,21.0,meteohub,2013-07-23 23:56:00,
2013-07-23 20:01:00,82.4,75.2,29.84,WSW,252,1.0,10.0,79,0.00,,,0.00,16.0,meteohub,2013-07-24 00:01:00,
2013-07-23 20:06:00,82.0,75.2,29.84,NE,43,0.0,8.0,80,0.00,,,0.00,12.0,meteohub,2013-07-24 00:06:00,
2013-07-23 20:11:00,81.7,75.2,29.84,SSE,155,0.0,8.0,81,0.00,,,0.00,9.0,meteohub,2013-07-24 00:11:00,
2013-07-23 20:16:00,81.1,75.2,29.84,WNW,291,2.0,8.0,82,0.00,,,0.00,5.0,meteohub,2013-07-24 00:16:00,
2013-07-23 20:22:00,81.0,75.0,29.84,South,190,1.0,7.0,82,0.00,,,0.00,0.0,meteohub,2013-07-24 00:22:00,
2013-07-23 20:27:00,80.8,75.2,29.85,South,178,2.0,7.0,83,0.00,,,0.00,0.0,meteohub,2013-07-24 00:27:00,
2013-07-23 20:32:00,80.4,75.2,29.84,NW,316,2.0,7.0,84,0.00,,,0.00,0.0,meteohub,2013-07-24 00:32:00,
2013-07-23 20:37:00,80.2,75.4,29.85,SW,230,0.0,6.0,85,0.00,,,0.00,0.0,meteohub,2013-07-24 00:37:00,
2013-07-23 20:42:00,80.1,75.2,29.85,SSE,160,3.0,6.0,85,0.00,,,0.00,0.0,meteohub,2013-07-24 00:42:00,
2013-07-23 20:47:00,79.9,75.4,29.86,SSW,201,0.0,4.0,86,0.00,,,0.00,0.0,meteohub,2013-07-24 00:47:00,
2013-07-23 20:52:00,79.9,75.4,29.86,SE,145,1.0,4.0,86,0.00,,,0.00,0.0,meteohub,2013-07-24 00:52:00,
2013-07-23 20:57:00,79.9,75.4,29.86,SSW,207,0.0,4.0,86,0.00,,,0.00,0.0,meteohub,2013-07-24 00:57:00,
2013-07-23 21:02:00,79.7,75.2,29.85,South,185,0.0,5.0,86,0.00,,,0.00,0.0,meteohub,2013-07-24 01:02:00,
2013-07-23 21:07:00,79.5,75.0,29.86,SSW,201,0.0,5.0,86,0.00,,,0.00,0.0,meteohub,2013-07-24 01:07:00,
2013-07-23 21:12:00,79.5,75.4,29.86,WSW,238,0.0,5.0,87,0.00,,,0.00,0.0,meteohub,2013-07-24 01:12:00,
2013-07-23 21:17:00,79.5,75.4,29.86,NNW,338,1.0,5.0,87,0.00,,,0.00,0.0,meteohub,2013-07-24 01:17:00,
2013-07-23 21:22:00,79.3,75.2,29.86,SW,224,0.0,3.0,87,0.00,,,0.00,0.0,meteohub,2013-07-24 01:22:00,
2013-07-23 21:27:00,79.3,75.2,29.86,North,0,0.0,3.0,87,0.00,,,0.00,0.0,meteohub,2013-07-24 01:27:00,
2013-07-23 21:32:00,79.3,75.2,29.86,North,355,0.0,3.0,87,0.00,,,0.00,0.0,meteohub,2013-07-24 01:32:00,
2013-07-23 21:37:00,79.2,75.4,29.86,WNW,303,0.0,3.0,88,0.00,,,0.00,0.0,meteohub,2013-07-24 01:37:00,
2013-07-23 21:42:00,79.2,75.4,29.86,WNW,286,2.0,2.0,88,0.00,,,0.00,0.0,meteohub,2013-07-24 01:42:00,
2013-07-23 21:47:00,79.2,75.4,29.86,SSE,149,0.0,6.0,88,0.00,,,0.00,0.0,meteohub,2013-07-24 01:47:00,
2013-07-23 21:52:00,79.0,75.2,29.87,SSE,149,0.0,6.0,88,0.00,,,0.00,0.0,meteohub,2013-07-24 01:52:00,
2013-07-23 21:57:00,79.0,75.2,29.86,SSE,149,0.0,6.0,88,0.00,,,0.00,0.0,meteohub,2013-07-24 01:57:00,
2013-07-23 22:02:00,78.6,75.0,29.87,SSE,150,0.0,0.0,89,0.00,,,0.00,0.0,meteohub,2013-07-24 02:02:00,
2013-07-23 22:07:00,78.6,75.0,29.86,SSE,150,0.0,1.0,89,0.00,,,0.00,0.0,meteohub,2013-07-24 02:07:00,
2013-07-23 22:12:00,78.6,75.0,29.87,WNW,289,0.0,5.0,89,0.00,,,0.00,0.0,meteohub,2013-07-24 02:12:00,
2013-07-23 22:17:00,78.6,75.0,29.87,WNW,295,0.0,5.0,89,0.00,,,0.00,0.0,meteohub,2013-07-24 02:17:00,
2013-07-23 22:22:00,78.4,74.8,29.87,NW,315,0.0,5.0,89,0.00,,,0.00,0.0,meteohub,2013-07-24 02:22:00,
2013-07-23 22:27:00,78.3,74.7,29.87,WSW,246,0.0,5.0,89,0.00,,,0.00,0.0,meteohub,2013-07-24 02:27:00,
2013-07-23 22:33:00,78.1,74.5,29.87,ESE,118,1.0,3.0,89,0.00,,,0.00,0.0,meteohub,2013-07-24 02:33:00,
2013-07-23 22:38:00,77.9,74.5,29.87,WNW,292,0.0,4.0,89,0.00,,,0.00,0.0,meteohub,2013-07-24 02:38:00,
2013-07-23 22:43:00,77.7,74.3,29.87,WNW,292,0.0,5.0,89,0.00,,,0.00,0.0,meteohub,2013-07-24 02:43:00,
2013-07-23 22:48:00,77.7,74.3,29.87,WNW,292,0.0,5.0,89,0.00,,,0.00,0.0,meteohub,2013-07-24 02:48:00,
2013-07-23 22:53:00,77.5,74.1,29.87,WNW,294,0.0,5.0,89,0.00,,,0.00,0.0,meteohub,2013-07-24 02:53:00,
2013-07-23 22:58:00,77.5,74.1,29.86,WNW,294,0.0,4.0,89,0.00,,,0.00,0.0,meteohub,2013-07-24 02:58:00,
2013-07-23 23:04:00,77.5,74.3,29.86,WNW,294,0.0,4.0,90,0.00,,,0.00,0.0,meteohub,2013-07-24 03:04:00,
2013-07-23 23:09:00,77.4,74.1,29.86,WNW,294,0.0,1.0,90,0.00,,,0.00,0.0,meteohub,2013-07-24 03:09:00,
2013-07-23 23:14:00,77.4,73.9,29.86,WNW,294,0.0,1.0,89,0.00,,,0.00,0.0,meteohub,2013-07-24 03:14:00,
2013-07-23 23:20:00,77.4,73.9,29.86,WNW,294,0.0,1.0,89,0.00,,,0.00,0.0,meteohub,2013-07-24 03:20:00,
2013-07-23 23:25:00,77.2,73.8,29.85,WNW,294,0.0,1.0,89,0.00,,,0.00,0.0,meteohub,2013-07-24 03:25:00,
2013-07-23 23:30:00,77.2,73.8,29.85,WNW,294,0.0,1.0,89,0.00,,,0.00,0.0,meteohub,2013-07-24 03:30:00,
2013-07-23 23:35:00,77.2,73.8,29.85,WNW,294,0.0,1.0,89,0.00,,,0.00,0.0,meteohub,2013-07-24 03:35:00,
2013-07-23 23:40:00,77.2,73.8,29.85,WNW,294,0.0,1.0,89,0.00,,,0.00,0.0,meteohub,2013-07-24 03:40:00,
2013-07-23 23:45:00,77.2,73.8,29.85,WNW,294,0.0,1.0,89,0.00,,,0.00,0.0,meteohub,2013-07-24 03:45:00,
2013-07-23 23:51:00,77.2,73.8,29.85,WNW,294,0.0,1.0,89,0.00,,,0.00,0.0,meteohub,2013-07-24 03:51:00,
2013-07-23 23:56:00,77.2,73.8,29.85,WNW,294,0.0,0.0,89,0.00,,,0.00,0.0,meteohub,2013-07-24 03:56:00,